Year,Month,Day,Hour,Minute,Value (Times are PST for temperature in C)
2023,03,28,02,15,7.30
2023,03,28,02,16,7.30
2023,03,28,02,17,7.30
2023,03,28,02,18,7.30
2023,03,28,02,19,7.30
2023,03,28,02,20,7.30
2023,03,28,02,21,7.30
2023,03,28,02,22,7.30
2023,03,28,02,23,7.30
2023,03,28,02,24,7.30
2023,03,28,02,25,7.30
2023,03,28,02,26,7.30
2023,03,28,02,27,7.30
2023,03,28,02,28,7.30
2023,03,28,02,29,7.30
2023,03,28,08,26,9.70
2023,03,28,08,27,9.70
2023,03,28,08,28,9.70
2023,03,28,08,29,9.70
2023,03,28,08,30,9.70
2023,03,28,08,31,9.80
2023,03,28,08,32,9.80
2023,03,28,08,33,9.80
2023,03,28,08,34,9.80
2023,03,28,08,35,9.80
2023,03,28,08,36,9.80
2023,03,28,08,37,9.80
2023,03,28,08,38,9.80
2023,03,28,08,39,9.80
2023,03,28,08,40,9.80
2023,03,28,08,41,9.80
2023,03,28,08,42,9.80
2023,03,28,08,43,9.80
2023,03,28,08,44,9.90
2023,03,28,08,45,9.90
2023,03,28,08,46,9.90
2023,03,28,08,47,9.90
2023,03,28,08,48,9.90
2023,03,28,08,49,9.90
2023,03,28,08,50,9.90
2023,03,28,08,51,9.90
2023,03,28,08,52,9.90
2023,03,28,08,53,9.90
2023,03,28,08,54,10.00
2023,03,28,08,55,10.10
2023,03,28,08,56,10.10
2023,03,28,08,57,10.10
2023,03,28,08,58,10.10
2023,03,28,08,59,10.10
2023,03,28,09,00,10.10
2023,03,28,09,01,10.20
2023,03,28,09,02,10.20
2023,03,28,09,03,10.20
2023,03,28,09,04,10.20
2023,03,28,09,05,10.20
2023,03,28,09,06,10.20
2023,03,28,09,07,10.30
2023,03,28,09,08,10.30
2023,03,28,09,09,10.30
2023,03,28,09,10,10.30
2023,03,28,09,11,10.40
2023,03,28,09,12,10.40
2023,03,28,09,13,10.40
2023,03,28,09,14,10.40
2023,03,28,09,15,10.50
2023,03,28,09,16,10.60
2023,03,28,09,17,10.60
2023,03,28,09,18,10.60
2023,03,28,09,19,10.60
2023,03,28,09,20,10.50
2023,03,28,09,21,10.40
2023,03,28,09,22,10.40
2023,03,28,09,23,10.40
2023,03,28,09,24,10.40
2023,03,28,09,25,10.40
2023,03,28,09,26,10.50
2023,03,28,09,27,10.60
2023,03,28,09,28,10.50
2023,03,28,09,29,10.40
2023,03,28,09,30,10.40
2023,03,28,09,31,10.40
2023,03,28,09,32,10.40
2023,03,28,09,33,10.50
2023,03,28,09,34,10.60
2023,03,28,09,35,10.60
2023,03,28,09,36,10.60
2023,03,28,09,37,10.60
2023,03,28,09,38,10.60
2023,03,28,09,39,10.60
2023,03,28,09,40,10.60
2023,03,28,09,41,10.70
2023,03,28,09,42,10.70
2023,03,28,09,43,10.70
2023,03,28,09,44,10.80
2023,03,28,09,45,10.80
2023,03,28,09,46,10.80
2023,03,28,09,47,10.90
2023,03,28,09,48,10.90
2023,03,28,09,49,10.90
2023,03,28,09,50,10.90
2023,03,28,09,51,10.90
2023,03,28,09,52,10.90
2023,03,28,09,53,10.90
2023,03,28,09,54,10.90
2023,03,28,09,55,10.90
2023,03,28,09,56,10.90
2023,03,28,09,57,11.00
2023,03,28,09,58,11.00
2023,03,28,09,59,10.90
2023,03,28,10,00,10.90
2023,03,28,10,01,10.90
2023,03,28,10,02,11.00
2023,03,28,10,03,11.10
2023,03,28,10,04,11.10
2023,03,28,10,05,11.10
2023,03,28,10,06,11.10
2023,03,28,10,07,11.10
2023,03,28,10,08,11.10
2023,03,28,10,09,11.10
2023,03,28,10,10,11.10
2023,03,28,10,11,11.20
2023,03,28,10,12,11.20
2023,03,28,10,13,11.20
2023,03,28,10,14,11.30
2023,03,28,10,15,11.40
2023,03,28,10,16,11.40
2023,03,28,10,17,11.40
2023,03,28,10,18,11.50
2023,03,28,10,19,11.60
2023,03,28,10,20,11.60
2023,03,28,10,21,11.60
2023,03,28,10,22,11.60
2023,03,28,10,23,11.60
2023,03,28,10,24,11.60
2023,03,28,10,25,11.70
2023,03,28,10,26,11.70
2023,03,28,10,27,11.70
2023,03,28,10,28,11.70
2023,03,28,10,29,11.70
2023,03,28,10,30,11.70
2023,03,28,10,31,11.70
2023,03,28,10,32,11.80
2023,03,28,10,33,11.80
2023,03,28,10,34,11.80
2023,03,28,10,35,11.80
2023,03,28,10,36,11.80
2023,03,28,10,37,11.80
2023,03,28,10,38,11.90
2023,03,28,10,39,11.90
2023,03,28,10,40,11.90
2023,03,28,10,41,12.00
2023,03,28,10,42,12.00
2023,03,28,10,43,12.00
2023,03,28,10,44,12.00
2023,03,28,10,45,12.00
2023,03,28,10,46,12.00
2023,03,28,10,47,11.90
2023,03,28,10,48,11.90
2023,03,28,10,49,11.90
2023,03,28,10,50,12.00
2023,03,28,10,51,12.00
2023,03,28,10,52,12.10
2023,03,28,10,53,12.10
2023,03,28,10,54,12.20
2023,03,28,10,55,12.20
2023,03,28,10,56,12.20
2023,03,28,10,57,12.20
2023,03,28,10,58,12.20
2023,03,28,10,59,12.10
2023,03,28,11,00,12.20
2023,03,28,11,01,12.20
2023,03,28,11,02,12.20
2023,03,28,11,03,12.20
2023,03,28,11,04,12.10
2023,03,28,11,05,12.10
2023,03,28,11,06,12.10
2023,03,28,11,07,12.20
2023,03,28,11,08,12.30
2023,03,28,11,09,12.30
2023,03,28,11,10,12.40
2023,03,28,11,11,12.40
2023,03,28,11,12,12.40
2023,03,28,11,13,12.40
2023,03,28,11,14,12.40
2023,03,28,11,15,12.40
2023,03,28,11,16,12.50
2023,03,28,11,17,12.50
2023,03,28,11,18,12.50
2023,03,28,11,19,12.50
2023,03,28,11,20,12.50
2023,03,28,11,21,12.60
2023,03,28,11,22,12.60
2023,03,28,11,23,12.70
2023,03,28,11,24,12.70
2023,03,28,11,25,12.70
2023,03,28,11,26,12.70
2023,03,28,11,27,12.60
2023,03,28,11,28,12.60
2023,03,28,11,29,12.60
2023,03,28,11,30,12.60
2023,03,28,11,31,12.60
2023,03,28,11,32,12.60
2023,03,28,11,33,12.60
2023,03,28,11,34,12.60
2023,03,28,11,35,12.70
2023,03,28,11,36,12.60
2023,03,28,11,37,12.70
2023,03,28,11,38,12.70
2023,03,28,11,39,12.70
2023,03,28,11,40,12.80
2023,03,28,11,41,12.80
2023,03,28,11,42,12.90
2023,03,28,11,43,13.00
2023,03,28,11,44,13.00
2023,03,28,11,45,13.10
2023,03,28,11,46,13.20
2023,03,28,11,47,13.20
2023,03,28,11,48,13.20
2023,03,28,11,49,13.20
2023,03,28,11,50,13.10
2023,03,28,11,51,13.10
2023,03,28,11,52,13.10
2023,03,28,11,53,13.10
2023,03,28,11,54,13.10
2023,03,28,11,55,13.20
2023,03,28,11,56,13.20
2023,03,28,11,57,13.20
2023,03,28,11,58,13.10
2023,03,28,11,59,13.10
2023,03,28,12,00,13.10
2023,03,28,12,01,13.20
2023,03,28,12,02,13.30
2023,03,28,12,03,13.20
2023,03,28,12,04,13.20
2023,03,28,12,05,13.20
2023,03,28,12,06,13.20
2023,03,28,12,07,13.20
2023,03,28,12,08,13.30
2023,03,28,12,09,13.30
2023,03,28,12,10,13.30
2023,03,28,12,11,13.30
2023,03,28,12,12,13.30
2023,03,28,12,13,13.30
2023,03,28,12,14,13.40
2023,03,28,12,15,13.40
2023,03,28,12,16,13.50
2023,03,28,12,17,13.50
2023,03,28,12,18,13.50
2023,03,28,12,19,13.50
2023,03,28,12,20,13.50
2023,03,28,12,21,13.50
2023,03,28,12,22,13.50
2023,03,28,12,23,13.60
2023,03,28,12,24,13.70
2023,03,28,12,25,13.80
2023,03,28,12,26,13.90
2023,03,28,12,27,13.90
2023,03,28,12,28,14.00
2023,03,28,12,29,14.00
2023,03,28,12,30,14.10
2023,03,28,12,31,14.10
2023,03,28,12,32,14.00
2023,03,28,12,33,14.00
2023,03,28,12,34,14.00
2023,03,28,12,35,14.00
2023,03,28,12,36,14.00
2023,03,28,12,37,14.00
2023,03,28,12,38,13.90
2023,03,28,12,39,13.90
2023,03,28,12,40,13.80
2023,03,28,12,41,13.80
2023,03,28,12,42,13.90
2023,03,28,12,43,14.00
2023,03,28,12,44,14.00
2023,03,28,12,45,14.10
2023,03,28,12,46,14.10
2023,03,28,12,47,14.10
2023,03,28,12,48,14.20
2023,03,28,12,49,14.20
2023,03,28,12,50,14.10
2023,03,28,12,51,14.10
2023,03,28,12,52,14.10
2023,03,28,12,53,14.10
2023,03,28,12,54,14.10
2023,03,28,12,55,14.20
2023,03,28,12,56,14.20
2023,03,28,12,57,14.20
2023,03,28,12,58,14.20
2023,03,28,12,59,14.20
2023,03,28,13,00,14.20
2023,03,28,13,01,14.10
2023,03,28,13,02,14.10
2023,03,28,13,03,14.00
2023,03,28,13,04,14.00
2023,03,28,13,05,13.90
2023,03,28,13,06,14.00
2023,03,28,13,07,14.00
2023,03,28,13,08,14.00
2023,03,28,13,09,14.00
2023,03,28,13,10,14.10
2023,03,28,13,11,14.20
2023,03,28,13,12,14.20
2023,03,28,13,13,14.20
2023,03,28,13,14,14.20
2023,03,28,13,15,14.20
2023,03,28,13,16,14.30
2023,03,28,13,17,14.40
2023,03,28,13,18,14.40
2023,03,28,13,19,14.40
2023,03,28,13,20,14.40
2023,03,28,13,21,14.40
2023,03,28,13,22,14.40
2023,03,28,13,23,14.30
2023,03,28,13,24,14.30
2023,03,28,13,25,14.20
2023,03,28,13,26,14.20
2023,03,28,13,27,14.20
2023,03,28,13,28,14.30
2023,03,28,13,29,14.20
2023,03,28,13,30,14.20
2023,03,28,13,31,14.20
2023,03,28,13,32,14.20
2023,03,28,13,33,14.20
2023,03,28,13,34,14.30
2023,03,28,13,35,14.30
2023,03,28,13,36,14.30
2023,03,28,13,37,14.40
2023,03,28,13,38,14.40
2023,03,28,13,39,14.40
2023,03,28,13,40,14.40
2023,03,28,13,41,14.30
2023,03,28,13,42,14.20
2023,03,28,13,43,14.20
2023,03,28,13,44,14.20
2023,03,28,13,45,14.10
2023,03,28,13,46,14.00
2023,03,28,13,47,13.90
2023,03,28,13,48,13.90
2023,03,28,13,49,13.90
2023,03,28,13,50,14.00
2023,03,28,13,51,14.00
2023,03,28,13,52,14.00
2023,03,28,13,53,14.00
2023,03,28,13,54,14.00
2023,03,28,13,55,14.00
2023,03,28,13,56,14.00
2023,03,28,13,57,13.90
2023,03,28,13,58,14.00
2023,03,28,13,59,14.00
2023,03,28,14,00,14.00
2023,03,28,14,01,14.00
2023,03,28,14,02,14.00
2023,03,28,14,03,14.10
2023,03,28,14,04,14.10
2023,03,28,14,05,14.20
2023,03,28,14,06,14.20
2023,03,28,14,07,14.20
2023,03,28,14,08,14.30
2023,03,28,14,09,14.30
2023,03,28,14,10,14.40
2023,03,28,14,11,14.40
2023,03,28,14,12,14.50
2023,03,28,14,13,14.60
2023,03,28,14,14,14.60
2023,03,28,14,15,14.60
2023,03,28,14,16,14.70
2023,03,28,14,17,14.70
2023,03,28,14,18,14.60
2023,03,28,14,19,14.60
2023,03,28,14,20,14.60
2023,03,28,14,21,14.50
2023,03,28,14,22,14.40
2023,03,28,14,23,14.30
2023,03,28,14,24,14.30
2023,03,28,14,25,14.20
2023,03,28,14,26,14.20
2023,03,28,14,27,14.20
2023,03,28,14,28,14.20
2023,03,28,14,29,14.20
2023,03,28,14,30,14.20
2023,03,28,14,31,14.20
2023,03,28,14,32,14.30
2023,03,28,14,33,14.30
2023,03,28,14,34,14.30
2023,03,28,14,35,14.30
2023,03,28,14,36,14.30
2023,03,28,14,37,14.30
2023,03,28,14,38,14.40
2023,03,28,14,39,14.40
2023,03,28,14,40,14.50
2023,03,28,14,41,14.60
2023,03,28,14,42,14.60
2023,03,28,14,43,14.60
2023,03,28,14,44,14.70
2023,03,28,14,45,14.70
2023,03,28,14,46,14.70
2023,03,28,14,47,14.70
2023,03,28,14,48,14.60
2023,03,28,14,49,14.60
2023,03,28,14,50,14.50
2023,03,28,14,51,14.50
2023,03,28,14,52,14.40
2023,03,28,14,53,14.40
2023,03,28,14,54,14.30
2023,03,28,14,55,14.30
2023,03,28,14,56,14.30
2023,03,28,14,57,14.30
2023,03,28,14,58,14.30
2023,03,28,14,59,14.30
2023,03,28,15,00,14.30
2023,03,28,15,01,14.20
2023,03,28,15,02,14.20
2023,03,28,15,03,14.20
2023,03,28,15,04,14.20
2023,03,28,15,05,14.20
2023,03,28,15,06,14.20
2023,03,28,15,07,14.30
2023,03,28,15,08,14.30
2023,03,28,15,09,14.40
2023,03,28,15,10,14.40
2023,03,28,15,11,14.40
2023,03,28,15,12,14.50
2023,03,28,15,13,14.50
2023,03,28,15,14,14.60
2023,03,28,15,15,14.70
2023,03,28,15,16,14.70
2023,03,28,15,17,14.80
2023,03,28,15,18,14.80
2023,03,28,15,19,14.80
2023,03,28,15,20,14.80
2023,03,28,15,21,14.90
2023,03,28,15,22,14.90
2023,03,28,15,23,14.90
2023,03,28,15,24,15.00
2023,03,28,15,25,15.00
2023,03,28,15,26,15.10
2023,03,28,15,27,15.10
2023,03,28,15,28,15.10
2023,03,28,15,29,15.00
2023,03,28,15,30,15.00
2023,03,28,15,31,15.00
2023,03,28,15,32,14.90
2023,03,28,15,33,14.90
2023,03,28,15,34,14.90
2023,03,28,15,35,14.90
2023,03,28,15,36,14.80
2023,03,28,15,37,14.80
2023,03,28,15,38,14.80
2023,03,28,15,39,14.80
2023,03,28,15,40,14.90
2023,03,28,15,41,14.90
2023,03,28,15,42,14.90
2023,03,28,15,43,14.80
2023,03,28,15,44,14.80
2023,03,28,15,45,14.80
2023,03,28,15,46,14.80
2023,03,28,15,47,14.70
2023,03,28,15,48,14.70
2023,03,28,15,49,14.70
2023,03,28,15,50,14.70
2023,03,28,15,51,14.70
2023,03,28,15,52,14.70
2023,03,28,15,53,14.70
2023,03,28,15,54,14.70
2023,03,28,15,55,14.70
2023,03,28,15,56,14.70
2023,03,28,15,57,14.70
2023,03,28,15,58,14.70
2023,03,28,15,59,14.80
2023,03,28,16,00,14.80
2023,03,28,16,01,14.80
2023,03,28,16,02,14.90
2023,03,28,16,03,14.90
2023,03,28,16,04,14.90
2023,03,28,16,05,14.90
2023,03,28,16,06,14.90
2023,03,28,16,07,15.00
2023,03,28,16,08,15.00
2023,03,28,16,09,15.00
2023,03,28,16,10,15.10
2023,03,28,16,11,15.10
2023,03,28,16,12,15.20
2023,03,28,16,13,15.20
2023,03,28,16,14,15.20
2023,03,28,16,15,15.20
2023,03,28,16,16,15.30
2023,03,28,16,17,15.30
2023,03,28,16,18,15.30
2023,03,28,16,19,15.40
2023,03,28,16,20,15.40
2023,03,28,16,21,15.50
2023,03,28,16,22,15.50
2023,03,28,16,23,15.50
2023,03,28,16,24,15.50
2023,03,28,16,25,15.50
2023,03,28,16,26,15.50
2023,03,28,16,27,15.50
2023,03,28,16,28,15.60
2023,03,28,16,29,15.60
2023,03,28,16,30,15.60
2023,03,28,16,31,15.60
2023,03,28,16,32,15.60
2023,03,28,16,33,15.60
2023,03,28,16,34,15.60
2023,03,28,16,35,15.60
2023,03,28,16,36,15.60
2023,03,28,16,37,15.60
2023,03,28,16,38,15.70
2023,03,28,16,39,15.70
2023,03,28,16,40,15.70
2023,03,28,16,41,15.60
2023,03,28,16,42,15.60
2023,03,28,16,43,15.60
2023,03,28,16,44,15.60
2023,03,28,16,45,15.60
2023,03,28,16,46,15.60
2023,03,28,16,47,15.60
2023,03,28,16,48,15.60
2023,03,28,16,49,15.60
2023,03,28,16,50,15.70
2023,03,28,16,51,15.80
2023,03,28,16,52,15.80
2023,03,28,16,53,15.80
2023,03,28,16,54,15.80
2023,03,28,16,55,15.80
2023,03,28,16,56,15.70
2023,03,28,16,57,15.70
2023,03,28,16,58,15.70
2023,03,28,16,59,15.70
2023,03,28,17,00,15.70
2023,03,28,17,01,15.70
2023,03,28,17,02,15.80
2023,03,28,17,03,15.80
2023,03,28,17,04,15.80
2023,03,28,17,05,15.80
2023,03,28,17,06,15.80
2023,03,28,17,07,15.80
2023,03,28,17,08,15.80
2023,03,28,17,09,15.70
2023,03,28,17,10,15.70
2023,03,28,17,11,15.60
2023,03,28,17,12,15.60
2023,03,28,17,13,15.60
2023,03,28,17,14,15.60
2023,03,28,17,15,15.60
2023,03,28,17,16,15.60
2023,03,28,17,17,15.60
2023,03,28,17,18,15.70
2023,03,28,17,19,15.70
2023,03,28,17,20,15.70
2023,03,28,17,21,15.70
2023,03,28,17,22,15.70
2023,03,28,17,23,15.70
2023,03,28,17,24,15.60
2023,03,28,17,25,15.60
2023,03,28,17,26,15.60
2023,03,28,17,27,15.60
2023,03,28,17,28,15.60
2023,03,28,17,29,15.60
2023,03,28,17,30,15.60
2023,03,28,17,31,15.60
2023,03,28,17,32,15.60
2023,03,28,17,33,15.60
2023,03,28,17,34,15.60
2023,03,28,17,35,15.70
2023,03,28,17,36,15.70
2023,03,28,17,37,15.70
2023,03,28,17,38,15.80
2023,03,28,17,39,15.80
2023,03,28,17,40,15.80
2023,03,28,17,41,15.80
2023,03,28,17,42,15.80
2023,03,28,17,43,15.70
2023,03,28,17,44,15.70
2023,03,28,17,45,15.70
2023,03,28,17,46,15.60
2023,03,28,17,47,15.60
2023,03,28,17,48,15.50
2023,03,28,17,49,15.40
2023,03,28,17,50,15.40
2023,03,28,17,51,15.40
2023,03,28,17,52,15.40
2023,03,28,17,53,15.40
2023,03,28,17,54,15.40
2023,03,28,17,55,15.30
2023,03,28,17,56,15.30
2023,03,28,17,57,15.30
2023,03,28,17,58,15.30
2023,03,28,17,59,15.30
2023,03,28,18,00,15.30
2023,03,28,18,01,15.30
2023,03,28,18,02,15.30
2023,03,28,18,03,15.30
2023,03,28,18,04,15.20
2023,03,28,18,05,15.20
2023,03,28,18,06,15.20
2023,03,28,18,07,15.20
2023,03,28,18,08,15.10
2023,03,28,18,09,15.10
2023,03,28,18,10,15.10
2023,03,28,18,11,15.00
2023,03,28,18,12,15.00
2023,03,28,18,13,15.00
2023,03,28,18,14,14.90
2023,03,28,18,15,14.90
2023,03,28,18,16,14.90
2023,03,28,18,17,14.80
2023,03,28,18,18,14.80
2023,03,28,18,19,14.80
2023,03,28,18,20,14.80
2023,03,28,18,21,14.80
2023,03,28,18,22,14.80
2023,03,28,18,23,14.80
2023,03,28,18,24,14.70
2023,03,28,18,25,14.70
2023,03,28,18,26,14.70
2023,03,28,18,27,14.70
2023,03,28,18,28,14.70
2023,03,28,18,29,14.70
2023,03,28,18,30,14.70
2023,03,28,18,31,14.60
2023,03,28,18,32,14.60
2023,03,28,18,33,14.60
2023,03,28,18,34,14.60
2023,03,28,18,35,14.60
2023,03,28,18,36,14.60
2023,03,28,18,37,14.60
2023,03,28,18,38,14.60
2023,03,28,18,39,14.60
2023,03,28,18,40,14.60
2023,03,28,18,41,14.60
2023,03,28,18,42,14.60
